User: anonymous   Login
Location: Unspecified
(0.0000°N, 0.0000°E)
Time: 18:24:17
(UTC+02:00)
Language:

ATLAS 5 CENTAUR R/B - Orbit

View from above orbital plane
View from above orbital plane
View from above satellite
View from above satellite

Ground track
Ground track

The orbit data is extracted from the following two-line orbital elements,

1 31702U 07027B   16200.87000870 0.00000100  00000-0  36979-4 0    00
2 31702  63.3657 113.8536 0231000 359.9855   0.0145 14.18492659    01
Epoch (UTC): 18 July 2016 20:52:48
Eccentricity: 0.0231000
inclination: 63.3657°
perigee height: 664 km
apogee height: 997 km
right ascension of ascending node: 113.8536°
argument of perigee: 359.9855°
revolutions per day: 14.18492659
mean anomaly at epoch: 0.0145°
orbit number at epoch: 0

The dashed part of the orbit path shows where the satellite is in the earth's shadow,  

DLR